Theta_e
307 306 308 310 311 311 311 311 312 311 307 306 312 315 314 316 309 308 309 311 310 316 321 329 329 340 344 348 348 351 356 359 356 353 354 350 351 349 348 346 345 344 342 345 346
308 306 306 306 308 310 311 311 311 310 307 306 309 314 313 316 313 310 310 309 310 316 325 327 328 339 344 348 348 349 356 353 349 349 351 350 349 347 348 347 346 342 344 345 345
309 309 311 310 307 306 307 307 307 307 307 306 308 313 312 315 313 312 314 310 310 316 326 325 325 332 337 341 344 348 354 351 348 348 349 349 347 346 348 349 346 345 345 345 344
309 311 311 311 310 309 306 305 305 306 306 306 309 311 311 314 316 323 321 311 310 318 325 323 325 327 338 342 343 352 349 348 348 348 349 349 346 349 346 346 345 344 343 343 343
310 311 312 313 313 312 309 308 306 306 306 307 309 310 311 318 314 315 314 311 310 323 325 324 324 328 343 341 343 348 349 350 347 347 348 346 348 348 347 345 344 343 343 343 342
313 310 312 314 315 314 316 308 309 307 307 308 309 309 314 319 311 312 319 316 319 321 322 322 323 328 340 342 345 344 349 351 347 347 349 348 345 344 346 344 344 343 342 341 340
315 309 311 313 314 313 313 316 309 309 308 308 308 310 317 318 312 322 322 324 321 322 322 321 322 332 341 343 345 346 351 352 351 349 349 345 346 345 345 344 344 343 343 343 344
315 314 309 311 312 313 313 314 318 309 310 310 310 310 318 314 314 322 321 324 321 321 322 322 325 336 340 334 343 349 351 357 351 349 349 347 351 347 346 344 343 343 342 345 346
314 314 314 312 312 313 314 315 317 315 311 309 311 314 316 311 320 318 317 319 319 318 319 320 325 336 337 335 344 347 350 355 355 349 349 349 351 346 348 345 345 343 343 346 346
312 313 314 315 315 315 315 316 318 318 312 315 311 320 320 318 323 318 316 317 318 318 319 320 327 338 338 338 350 350 352 352 356 353 350 351 352 346 345 347 346 345 344 346 346
311 311 312 313 315 315 316 317 321 323 321 321 320 319 320 321 322 320 318 317 316 317 322 320 327 340 342 337 335 345 348 352 353 351 352 353 352 348 344 347 345 345 345 345 345
312 311 311 311 313 315 317 319 319 318 321 320 319 319 319 320 323 321 318 319 318 318 322 323 325 332 340 335 332 341 346 354 352 349 349 348 353 345 344 345 346 345 344 344 345
312 312 311 310 313 316 317 318 317 317 322 320 319 321 321 320 323 323 320 319 319 320 324 324 324 335 336 332 333 344 347 350 353 349 346 346 349 352 344 344 345 345 345 344 345
312 311 310 310 315 315 318 318 317 318 324 323 323 321 321 322 322 321 322 319 318 321 323 324 326 331 336 333 333 337 338 347 350 351 352 345 355 351 347 345 347 346 346 345 345
312 311 310 309 311 315 317 318 317 317 325 323 323 320 322 323 323 323 321 320 321 321 325 327 327 332 335 335 330 333 331 341 345 345 347 347 350 347 350 350 348 346 345 345 345
311 312 311 310 312 314 317 316 317 323 325 323 322 322 323 323 324 324 323 323 324 323 325 327 328 330 330 330 327 331 334 339 344 344 344 347 350 350 350 353 345 344 345 344 344
315 312 310 311 317 317 315 319 326 325 323 323 323 323 324 325 325 325 325 325 324 325 325 327 327 328 327 330 330 333 340 345 345 346 346 343 348 346 346 347 349 344 344 345 343
314 311 312 314 316 316 319 325 325 323 323 322 322 323 325 325 326 326 326 326 325 324 325 326 327 327 326 328 329 332 338 341 347 346 345 344 349 348 344 346 347 347 345 345 345
313 314 316 318 318 320 322 322 323 322 322 323 322 323 324 325 325 325 326 327 325 324 324 325 326 326 326 326 326 331 334 336 338 340 343 345 345 346 345 347 346 348 348 346 345
317 320 319 320 321 321 322 320 322 322 323 322 323 324 324 325 325 326 325 325 325 324 324 325 326 325 325 325 325 327 331 335 336 339 342 347 345 343 351 350 348 347 348 347 346
319 322 319 319 320 322 322 322 322 320 322 322 323 324 325 325 326 326 325 325 324 325 325 325 326 327 326 325 325 326 328 329 330 334 338 343 344 346 349 349 349 347 347 348 347
321 324 320 319 321 321 321 322 320 320 320 322 322 323 325 325 326 326 325 325 324 325 326 326 327 329 327 326 325 327 326 328 329 333 335 337 347 347 347 348 349 350 349 348 348
324 323 321 321 322 322 322 321 320 320 320 321 322 322 323 324 326 326 326 324 323 323 325 326 327 329 329 328 327 327 327 328 328 329 333 335 337 348 348 349 349 349 350 349 348
322 323 321 322 321 322 321 320 319 318 320 320 321 321 322 324 324 325 325 324 321 324 320 321 326 328 329 329 328 328 327 328 329 331 331 333 337 350 350 350 348 348 349 350 350
322 322 319 321 321 321 320 319 318 319 319 320 322 322 322 324 324 324 324 324 322 320 322 325 327 327 327 327 327 328 327 327 329 329 331 331 333 338 349 348 347 346 345 347 347
325 324 322 321 318 319 315 319 318 318 317 318 323 322 323 324 324 324 323 324 324 323 324 324 328 328 327 326 326 327 330 329 328 329 330 332 334 344 346 345 344 344 344 344 342
322 322 324 317 319 320 319 319 317 315 316 315 318 323 323 321 320 321 319 319 320 323 324 325 327 329 328 327 327 327 329 334 334 335 336 333 342 345 346 343 342 342 343 341 341
Wind_Speed
14 12 10 9 9 10 10 10 9 10 10 9 10 9 9 8 9 11 13 8 13 16 17 14 12 12 12 9 5 3 2 5 6 14 7 12 13 8 6 15 7 6 18 28 25
15 13 11 9 8 8 9 10 10 9 8 9 8 9 9 7 9 14 7 9 12 17 19 18 16 15 12 10 6 6 3 1 4 9 8 9 11 14 12 14 14 21 25 28 25
15 13 12 11 9 7 8 9 9 9 7 7 7 8 6 6 4 3 7 16 17 18 18 15 13 14 10 6 7 2 2 10 11 9 4 13 13 9 15 12 19 27 33 28 24
14 12 12 11 10 9 8 7 8 8 6 5 6 6 5 4 2 5 7 16 19 22 19 16 16 13 7 6 7 2 1 9 9 5 6 6 13 10 6 11 16 26 31 30 24
13 11 12 12 12 11 10 8 6 6 5 4 4 5 4 6 5 4 1 19 21 22 22 18 16 13 9 6 6 3 4 9 11 10 8 6 8 5 9 14 23 27 26 25 22
14 11 10 10 10 11 12 10 7 4 3 1 3 4 3 9 6 5 5 15 20 20 23 20 14 11 6 7 5 3 9 11 13 14 14 13 9 3 9 21 28 27 24 23 20
12 10 8 8 9 11 13 11 9 6 3 1 3 4 6 2 3 3 10 15 18 18 20 17 10 11 5 7 7 7 6 13 16 19 17 15 5 7 16 23 26 24 22 21 19
10 10 8 8 9 11 13 11 8 7 4 2 2 3 4 5 2 5 12 16 15 14 15 13 8 9 10 4 7 10 7 7 9 13 15 14 13 8 17 23 23 23 23 20 19
9 10 9 9 9 11 13 11 8 3 5 3 3 1 4 2 4 8 11 17 15 10 11 10 7 9 9 10 8 8 3 9 8 10 5 3 12 15 15 23 24 24 23 20 19
10 10 10 10 9 10 12 8 9 3 1 2 1 3 3 5 9 10 9 16 15 11 11 12 10 10 11 11 10 12 11 11 6 10 16 12 8 15 18 22 24 24 25 21 20
11 12 11 11 8 7 7 7 5 1 4 6 2 3 8 7 12 10 12 12 13 13 10 16 11 16 16 13 6 8 5 17 7 9 4 5 12 21 25 19 25 24 25 24 22
12 13 12 12 10 1 3 2 5 5 6 5 6 7 6 8 10 12 13 9 13 13 12 9 17 17 6 4 10 8 9 12 8 4 9 8 11 15 18 20 22 25 24 24 22
13 14 13 12 7 2 3 3 9 8 6 2 2 4 7 10 12 18 16 7 14 14 15 14 14 7 10 11 9 4 5 11 10 8 10 7 4 13 12 15 22 24 23 24 23
13 15 14 10 2 5 2 6 13 7 4 5 6 5 7 8 8 15 14 8 7 14 13 11 5 14 13 11 9 8 3 6 18 12 5 7 3 3 11 15 25 21 28 26 24
15 16 13 5 4 1 5 6 12 3 1 3 4 3 7 6 19 13 13 7 10 11 9 7 11 16 16 13 7 4 0 5 11 6 12 7 4 2 17 14 16 20 26 26 26
17 16 8 1 3 4 3 9 3 6 5 3 2 1 11 7 6 16 13 7 1 8 13 6 12 11 11 9 8 1 10 3 3 3 5 13 4 5 13 22 26 29 30 27 27
17 8 1 4 2 2 6 3 6 3 2 3 3 0 5 8 11 15 13 11 7 10 12 6 11 8 6 13 9 8 13 6 7 6 3 4 9 3 15 19 27 33 34 30 26
6 6 6 6 4 2 3 6 4 3 5 2 2 4 4 1 8 6 12 9 3 8 9 12 14 13 11 12 11 15 17 7 7 7 6 4 7 3 4 18 28 32 34 34 30
8 9 7 5 2 3 6 2 4 3 3 4 3 6 6 6 1 6 6 9 8 7 4 10 10 9 11 13 9 17 14 17 15 8 6 8 3 6 8 11 18 29 28 29 30
10 6 3 4 4 4 1 7 5 4 5 3 1 4 3 5 8 7 7 4 7 4 7 4 7 10 15 14 16 14 14 17 10 9 11 7 7 6 12 13 17 19 32 34 30
6 3 2 2 4 5 6 10 6 6 3 5 2 1 2 1 3 5 5 7 2 6 5 5 8 11 10 15 16 13 12 15 15 14 11 9 7 3 8 11 15 19 26 32 31
1 2 2 2 4 1 5 3 1 4 2 2 2 4 5 3 2 4 5 4 1 4 6 3 6 9 15 8 11 15 21 17 12 16 9 13 3 3 5 9 10 12 19 24 28
1 4 1 1 3 5 5 4 4 4 6 5 2 4 3 3 2 1 3 4 2 3 3 2 6 8 9 9 6 13 12 15 18 17 16 13 7 7 9 8 9 13 16 17 21
2 4 3 0 2 2 3 3 3 3 3 5 5 3 3 2 2 2 5 4 1 3 3 3 11 11 7 4 5 13 11 14 16 11 13 13 8 9 11 12 15 16 16 15 16
2 2 2 3 4 2 2 1 1 0 1 3 4 3 3 3 3 1 2 6 6 2 3 4 11 7 9 5 4 4 10 14 17 17 17 10 14 10 14 14 15 16 14 15 13
2 2 1 4 5 5 4 2 2 1 5 1 1 1 2 1 6 5 2 1 1 1 1 3 7 6 7 4 5 5 4 10 15 12 13 8 6 4 12 14 15 14 15 13 12
3 1 3 6 6 6 2 3 2 1 2 3 4 4 3 5 4 5 5 3 4 4 2 3 4 7 11 8 8 11 3 1 2 5 7 11 4 10 12 13 14 14 13 12 11
Wind_Direction
1 357 346 331 318 310 302 296 291 291 285 269 260 251 251 256 258 256 251 221 212 187 174 170 170 174 175 193 199 236 191 215 161 164 138 136 138 136 154 146 145 148 144 148 149
3 359 355 347 330 311 300 295 290 283 278 274 262 251 258 251 268 263 236 211 202 186 171 173 175 172 190 202 212 241 265 182 123 120 134 159 146 138 145 144 132 121 132 145 150
3 7 6 1 352 331 309 297 291 285 277 263 258 247 247 264 293 216 211 209 193 184 182 181 179 181 203 187 197 205 329 117 124 112 93 132 139 155 152 159 153 145 145 150 155
5 7 9 9 7 2 349 326 309 302 288 267 254 235 231 216 202 210 222 200 185 175 179 188 187 198 189 212 179 239 109 132 126 128 118 99 127 110 199 151 157 155 151 151 158
6 9 18 29 31 24 15 359 340 323 300 270 232 225 210 228 245 255 155 177 177 176 182 182 193 204 207 213 166 230 129 124 128 150 144 108 120 99 102 147 147 151 151 154 156
8 11 20 25 23 22 21 13 2 350 328 262 212 197 209 241 227 225 192 163 172 178 187 191 201 212 228 192 214 166 140 150 167 172 162 140 136 13 124 145 146 154 156 156 159
7 8 6 4 9 10 10 10 14 9 10 143 187 194 234 265 263 186 174 167 172 177 186 192 208 214 191 172 146 176 140 131 176 173 158 131 112 118 147 148 151 158 160 158 160
4 6 360 351 352 356 358 2 10 25 34 67 159 163 254 232 227 135 154 160 167 169 179 186 191 232 235 131 180 171 177 140 153 169 153 168 158 156 171 159 162 161 160 159 159
0 2 3 358 350 349 349 351 351 14 49 55 76 213 123 137 128 146 150 157 158 160 172 190 200 228 190 186 195 189 206 133 155 191 162 211 145 198 179 175 169 164 164 163 163
357 355 358 1 354 345 344 345 356 355 299 3 183 217 144 123 147 142 150 158 163 156 149 184 206 217 217 197 202 181 194 149 169 174 183 179 157 174 193 188 177 172 172 169 170
358 355 351 347 346 341 342 349 0 121 284 291 23 351 122 123 133 148 149 151 164 183 185 187 204 209 198 222 333 248 186 132 138 125 75 195 163 174 188 198 182 175 179 178 177
351 354 345 338 343 2 332 314 359 319 303 260 257 245 179 157 150 158 156 170 177 185 187 172 215 205 246 203 241 226 193 127 100 127 106 34 149 168 182 195 193 182 180 178 178
338 345 341 335 350 94 296 269 335 334 264 103 180 175 175 181 174 174 180 176 190 185 199 205 196 155 214 209 224 202 222 159 130 116 72 96 24 164 182 225 213 190 194 187 184
333 335 339 335 25 342 274 310 337 328 230 91 144 131 151 180 155 169 180 174 194 202 203 232 135 183 201 214 233 164 351 119 141 171 138 206 187 137 174 202 219 208 205 195 189
330 328 330 303 280 293 264 307 330 298 192 43 82 123 166 218 134 177 180 199 192 186 205 172 173 199 201 194 187 27 256 131 162 128 139 158 149 183 159 205 207 206 204 201 198
328 321 318 248 233 244 286 322 318 231 85 107 83 190 183 171 166 149 186 223 330 190 221 86 210 203 192 152 166 232 178 182 116 318 227 168 198 226 207 202 199 206 213 206 199
328 326 159 146 153 167 314 299 235 22 173 50 39 122 119 133 142 166 182 195 187 185 193 168 179 188 231 186 156 178 187 165 210 194 247 152 202 208 204 195 200 197 206 207 202
11 93 107 120 137 328 323 244 60 47 47 29 322 177 148 127 134 176 186 182 210 265 182 200 182 196 188 216 183 191 207 220 204 214 168 196 227 143 170 189 206 203 201 202 206
105 103 92 94 97 354 250 35 32 28 4 354 193 209 154 159 236 203 229 213 181 231 266 209 226 162 194 211 230 191 207 236 272 232 206 169 223 179 159 193 195 207 203 194 208
121 111 83 84 26 320 233 76 78 6 340 280 9 321 186 155 221 223 185 161 188 240 284 190 221 193 193 222 219 242 211 215 235 266 233 178 197 251 189 199 196 199 200 200 196
133 173 335 8 31 240 73 87 93 70 328 346 30 124 72 63 291 224 161 138 213 173 251 233 272 152 174 203 203 201 231 227 249 235 267 219 195 136 194 187 188 195 198 197 198
211 147 30 103 162 43 91 21 270 70 119 79 343 34 36 27 175 197 184 40 98 267 214 202 242 219 202 159 238 224 213 211 224 226 248 288 50 126 155 175 179 178 185 191 193
82 101 80 358 138 118 128 113 9 20 39 7 29 14 8 36 211 230 122 86 39 249 320 164 239 213 215 174 194 225 227 239 226 244 231 234 234 143 148 158 168 174 172 177 183
222 174 156 144 37 321 166 116 131 53 52 343 323 280 246 175 77 123 159 127 82 24 350 268 274 275 256 343 227 189 217 221 245 227 236 229 214 172 175 171 173 176 171 168 167
267 89 2 157 142 120 251 357 240 134 70 348 180 325 328 216 179 121 236 178 163 71 222 274 262 268 271 296 262 240 219 211 224 238 249 251 215 191 183 176 174 176 162 166 167
296 236 141 117 133 167 156 114 283 120 327 56 319 66 255 14 14 74 316 273 351 241 247 236 262 267 230 223 226 233 230 232 226 236 254 272 252 2 144 158 166 167 164 160 154
2 42 273 158 182 223 79 130 78 163 77 9 316 265 152 60 16 51 45 38 2 282 215 279 267 245 229 190 211 230 49 309 201 245 293 224 53 130 154 171 170 163 163 152 162